STARLINK-33560, 62282

Orbit data source: Space-Track

STARLINK-33560, 62282 is a payload satellite owned by SpaceX/Seattle (US) in LEO that was launched on Sun, 08 Dec 2024 UTC via an FALCON 9 launch vehicle from the Air Force Eastern Test Range (AFETR). Payload-class satellites include a variety of spacecraft equipped with specific instruments for various scientific and technological missions. These include communications satellites like Starlink; space stations such as the ISS; scientific satellites like the Hubble; Earth observation satellites from companies like Planet Labs, Umbra, and HawkEye 360; GPS; miniature CubeSats for education and research; and military/defense satellites.

Loading next visibility...
Identifier
62282, 2024-237R
Orbit
LEO
Country
Flag of USUS
Related business
Manufacturer
SpaceX/Seattle
Mission
Operational Commercial Communications
Bus & Motor
STARLINK V2MO, Unknown motor
Mass
530 kg wet, ~500 kg dry
Launch date (UTC)
2024-12-08 (10 months ago)
Launch vehicle
FALCON 9
Launch site
Air Force Eastern Test Range (AFETR)
Object type
Payload
Rocket body
Debris
Shape & HBR
Box + 2 Pan, 17.7 m
Radar Cross Section
36.964 m², Large (>1 m²)

Expand to show TLE details & history
Last TLE update: 12 hours ago

TLE from 12 hours ago
0 STARLINK-33560
1 62282U 24237R   25286.51575906  .00040124  00000-0  14597-2 0  9998
2 62282  43.0020 327.5194 0001426 269.3895  90.6793 15.27580441 48594
Epoch: 2025-10-13T12:22Z
TLE epoch observation values (Epoch: 2025-10-13T12:22:41.582Z)
Latitude
-0.00005°
Longitude
119.52866°
Altitude
482.835 km
Speed
7.626 km/s
True Right ascension
21h 50m 04s
True Declination
0° 00' 00"
Sunlit
Object was in full shadow at epoch
Visualization orbit readout
Latitude
Unknown
Longitude
Unknown
Altitude
Unknown
Speed
Unknown
Apparent Right ascension
Unknown
Apparent Declination
Unknown
Sunlit
N/A
Visualization observer readout
Local Sidereal Time
18:37:51
Azimuth
Unknown
Elevation
Unknown
Doppler factor
Unknown
Orbital elements
Apogee altitude
485.971 km
Perigee altitude
484.014 km
Semi-major axis
6,863.13 km
Eccentricity
0.00014
Inclination
43.002°
RAAN
327.5194°
Arg. of periapsis
269.3895°
True anomaly
90.69564°
Mean anomaly
90.6793°
Eccentric anomaly
90.68747°
Mean motion
3.81733 °/min
Orbital period
94.31 mins
BSTAR
0.0014597
Loading maneuver chart data...
Computing Atmospheric mass density...
Loading historical data...
Loading historical data...
Loading historical data...
Loading historical data...
Loading historical data...
Loading historical data...
Loading historical data...

Documentation

Showing up to 5 results
|